Terminal Aerodrome Forecast
Issued by NWS Green Bay, WI

Home | Current Version | Previous Version | Text Only | Print | Product List | Glossary Off
Versions: 1 2 3 4 5 6 7 8 9 10 11 12 13 14 15 16 17 18 19 20 21 22 23 24 25 26 27 28 29 30 31 32 33 34 35 36 37 38 39 40 41

000
FTUS43 KGRB 301900 AAA
TAFGRB
TAF AMD
KGRB 301942Z 3020/3118 31008KT P6SM VCSH SCT025 OVC045
      TEMPO 3020/3022 4SM SHRA BKN025
     FM302200 33007KT P6SM VCSH SCT025 OVC050
     FM310200 34004KT P6SM BKN040
     FM310500 VRB03KT 4SM BR SCT009 SCT040
      TEMPO 3108/3112 3/4SM BR BKN009 OVC040
     FM311300 VRB03KT 5SM BR BKN015
     FM311600 17005KT P6SM SCT025=

USA.gov is the U.S. government's official web portal to all federal, state and local government web resources and services.